www.pogodaiklimat.ru

Погода и климат >> Архив погоды >> Иран >> Yasuj


ПОГОДА в Yasuj

  • Прогноз погоды в Yasuj
  • Монитор погоды в Yasuj
  • Климат города

АРХИВ ПОГОДЫ в Yasuj

Время (UTC), дата Ветер
(напр.,м/с)
 
Видим.   Явления Облачность Т
(С)
Тd
(С)
f
(%)
Тe
(С)
Тes
(С)
Комфортность P
(гПа)
Po
(гПа)
Тmin
(С)
Tmax
(С)
R
(мм)
R24
(мм)
S
(см)
09 13.09 В 3 15 км ясно +33.6 -6.4 7 +29 +43 жарко 1005.9 822.0
12 13.09 нст 2 15 км 3/3 1440 м
[Sc diur, vesp]
+35.2 -6.4 7 +31 +36 жарко 1004.8 821.0
15 13.09 штиль 0 15 км ясно +27.8 -2.0 14 +25 +25 комфорт 1006.7 820.0 +35.6
18 13.09 В 3 10 км ясно +25.6 -4.2 14 +23 +23 комфорт 1005.3 820.9
21 13.09 штиль 0 10 км ясно +21.0 -3.4 19 +20 +20 1003.8 819.9
00 14.09 штиль 0 10 км ясно +18.4 -1.2 26 +18 +18 1004.1 820.4
03 14.09 штиль 0 12 км ясно +17.0 -1.8 28 +17 +17 1008.0 821.1 +15.8
06 14.09 штиль 0 12 км ясно +26.0 -1.1 17 +24 +38 комфорт 1006.3 821.6
09 14.09 штиль 0 12 км ясно +33.0 -4.0 9 +29 +52 опасность
солнечного
удара
1003.7 820.1
12 14.09 штиль 0 12 км 4/4 1350 м
[Sc diur, vesp]
+34.6 -2.9 9 +31 +36 жарко 1003.1 819.3
15 14.09 штиль 0 15 км 5/5 1350 м
[Sc diur, vesp]
+30.0 -6.2 9 +26 +26 жарко 1005.2 819.3 +35.0
18 14.09 штиль 0 15 км 1/1 1350 м
[Cu hum]
+25.8 +1.0 20 +24 +24 комфорт 1004.9 820.6
21 14.09 штиль 0 15 км 1/1 1440 м
[Cu hum]
+22.8 -0.2 22 +22 +22 комфорт 1003.3 820.3
00 15.09 штиль 0 15 км ясно +18.4 +0.8 31 +18 +18 1004.3 820.4
03 15.09 штиль 0 15 км ясно +17.0 -0.4 31 +17 +17 1006.7 820.7 +16.8
06 15.09 штиль 0 12 км ясно +26.6 +1.3 19 +25 +39 комфорт 1006.0 821.7
09 15.09 З 2 12 км 3/3 1200 м
[Cu hum]
+34.0 -7.2 7 +30 +41 жарко 1003.1 820.2
12 15.09 З 3 12 км 5/5 1200 м
[Sc diur, vesp]
+34.6 -7.4 6 +30 +33 жарко 1003.5 819.6
15 15.09 Ю 4 12 км 4/4 1200 м
[Sc diur, vesp]
+29.2 +2.7 18 +27 +27 жарко 1005.6 819.7 +35.2
18 15.09 штиль 0 12 км 4/4 1350 м
[Sc diur, vesp]
+23.0 +9.4 42 +25 +25 комфорт 1005.4 820.8
21 15.09 штиль 0 12 км 4/4 1350 м
[Sc diur, vesp]
+22.0 +9.4 45 +24 +24 комфорт 1003.7 821.1
00 16.09 штиль 0 12 км 4/4 1350 м
[Sc diur, vesp]
+19.0 +8.4 50 +20 +20 1004.6 821.1
03 16.09 штиль 0 8000 м мгла ясно +18.4 +5.3 42 +19 +19 1006.9 821.3 +18.0
06 16.09 штиль 0 9000 м мгла ясно +27.0 -2.4 14 +26 +40 жарко 1007.2 822.1
09 16.09 штиль 0 10 км 4/4 1200 м
[Sc diur, vesp]
+33.6 -7.5 7 +29 +43 жарко 1002.9 819.7
12 16.09 ЮВ 3 10 км 4/4 1200 м
[Sc diur, vesp]
+33.6 -3.0 9 +30 +33 жарко 1001.5 817.9
15 16.09 Ю 4 10 км 8/5 1200 м
[Sc diur, vesp Ac As]
+29.4 +3.1 19 +27 +27 жарко 1003.8 818.7 +34.8
18 16.09 В 2 10 км 4/3 1200 м
[Cb calv Ac As]
+24.0 +6.1 32 +24 +24 комфорт 1004.0 819.8
21 16.09 штиль 0 10 км ясно +20.8 +3.1 31 +21 +21 комфорт 1003.2 819.5
00 17.09 В 3 10 км ясно +18.6 +1.8 32 +19 +19 1003.2 819.4
03 17.09 штиль 0 10 км ясно +17.8 +0.4 31 +18 +18 1005.5 819.8 +16.8
06 17.09 штиль 0 15 км ясно +26.6 +3.3 22 +25 +39 комфорт 1005.2 820.6
09 17.09 штиль 0 15 км 1/1 1440 м
[Cu hum]
+33.6 -2.1 10 +30 +50 жарко 1002.5 819.2
12 17.09 ЮЗ 6 15 км 3/3 1440 м
[Sc diur, vesp]
+34.0 -3.8 9 +30 +32 жарко 1002.3 818.5
15 17.09 ЮВ 3 15 км 3/1 1050 м
[Cb calv]
+28.2 +10.2 33 +29 +29 жарко 1003.3 818.2 +34.8
18 17.09 штиль 0 8000 м в посл. час ливневой дождь 4/4 1200 м
[Sc diur, vesp]
+22.6 +13.7 57 +26 +26 жарко 1003.5 819.5 0.5
21 17.09 штиль 0 10 км ясно +20.6 +10.5 52 +22 +22 комфорт 1002.0 819.4
00 18.09 штиль 0 10 км 1/1 1200 м
[Cu hum]
+19.8 +8.6 48 +21 +21 комфорт 1002.0 819.2
03 18.09 штиль 0 10 км 5/5 1200 м
[Sc diur, vesp]
+18.4 +6.7 46 +19 +19 1006.4 820.6 +17.4
06 18.09 штиль 0 7000 м мгла ясно +26.4 +6.9 29 +26 +40 жарко 1005.8 820.9
09 18.09 штиль 0 10 км мгла 4/4 1440 м
[Sc diur, vesp Ac trans]
+32.8 -0.9 11 +29 +42 жарко 1003.8 820.1
12 18.09 З 5 10 км 8/4 900 м
[Cb calv As op]
+30.0 -4.1 11 +27 +28 жарко 1003.6 818.9
15 18.09 ЮВ 5 6000 м мгла 8/4 900 м
[Cb calv As op]
+23.8 +6.8 34 +24 +24 комфорт 1007.6 820.4 +34.0
18 18.09 В 3 6000 м мгла 8/1 900 м
[Cb calv As op]
+21.4 +6.7 39 +22 +22 комфорт 1007.7 822.0
21 18.09 штиль 0 10 км ясно +17.8 +4.4 41 +18 +18 1007.8 821.3
00 19.09 штиль 0 10 км ясно +14.8 +5.2 53 +15 +15 1008.6 821.8
03 19.09 штиль 0 12 км ясно +14.6 +4.4 50 +15 +15 1010.5 821.9 +13.6
06 19.09 штиль 0 10 км ясно +24.8 +4.1 26 +24 +38 комфорт 1009.7 823.1
09 19.09 З 2 12 км 3/3 1200 м
[Cu hum]
+30.8 -4.8 10 +27 +38 жарко 1007.2 821.4
12 19.09 ЮЗ 6 15 км 6/4 1200 м
[Cu med, cong Ac As]
+31.0 -4.1 10 +27 +28 жарко 1006.3 820.0
15 19.09 штиль 0 15 км 4/4 1200 м
[Cu med, cong Ac As]
+26.8 +0.3 18 +25 +25 комфорт 1008.3 820.5 +33.0
18 19.09 штиль 0 15 км 1/1 1350 м
[Sc diur, vesp]
+21.0 +5.0 35 +21 +21 комфорт 1007.5 821.2
21 19.09 штиль 0 12 км 1/1 1350 м
[Sc diur, vesp]
+19.0 +5.1 40 +19 +19 1006.5 821.5
00 20.09 штиль 0 12 км 1/1 1350 м
[Sc diur, vesp]
+16.6 +4.2 44 +17 +17 1007.7 821.9
03 20.09 штиль 0 15 км ясно +16.0 +4.4 46 +16 +16 1009.6 822.1 +15.8
06 20.09 штиль 0 15 км ясно +24.8 +1.0 21 +24 +37 комфорт 1008.9 822.2

 

Местоположение метеостанции Yasuj (Иран): широта 30.67 долгота 51.58 высота над уровнем моря 1837 м.

В архиве по умолчанию представлена погода в Yasuj за последнюю неделю. Архивные данные за месяц целиком и за предыдущие месяцы, начиная с января 2011 года, Вы можете получить, выбрав интересующий диапазон дат из раскрывающегося списка и нажав кнопку "Ввод!".


*Определитесь, кто Вы:
робот инопланетянин человек

Внимание! Время в таблицах - всемирное. Для получения местного времени необходимо прибавить поправку, которая в Yasuj равна 3.5 ч.

Смотрите также архив погоды в соседних городах и на ближайших метеорологических станциях:

Погода в Gach Saran (Иран) (82 км)
Погода в Abadeh (Иран) (118 км)
Погода в Shiraz (Иран) (156 км)
Погода в Omidieh (Иран) (183 км)
Погода в Shahre-Kord (Иран) (192 км)
Погода в Khark (Иран) (198 км)
Погода в Esfahan (Иран) (200 км)
Погода в Bushehr Airport (Иран) (201 км)
Погода в Bushehr (Иран) (204 км)
Погода в Masjed-Soleyman (Иран) (263 км)

Пояснения к столбцам:

Ветер - указаны скорость ветра в м/с - средняя за 10 мин, порывы в срок и между сроками (в фигурных скобках) и направление, откуда дует ветер: С - северный, СВ - северо-восточный, В - восточный, ЮВ - юго-восточный, Ю - южный, ЮЗ - юго-западный, З - западный, СЗ - северо-западный.
Видимость - горизонтальная дальность видимости в метрах или километрах. При видимости от 1 до 10 км при отсутствии осадков обычно наблюдается дымка, при ухудшении видимости до 1 км и менее - туман. В сухую погоду видимость может ухудшаться дымом, пылью или мглою.
Явления - указаны атмосферные явления, наблюдавшиеся в срок или в последний час перед сроком; фигурными скобками обозначены явления, наблюдавшиеся между сроками (за 1-3 часа до срока); квадратными скобками обозначены град или гололедные отложения с указанием их диаметра в мм.
Облачность - указаны через наклонную черту общая и нижняя облачность в баллах и высота нижней границы облаков в метрах; квадратными скобками обозначены формы облаков: Ci - перистые, Cs - перисто-слоистые, Cc - перисто-кучевые, Ac - высококучевые, As - высокослоистые, Sc - слоисто-кучевые, Ns - слоисто-дождевые, Cu - кучевые, Cb - кучево-дождевые. Подробнее классификацию облаков см. в Атласе облаков (PDF).
T - Температура воздуха - температура, измеренная на высоте 2 м над землей.
Td - Температура точки росы - температура, при понижении до которой содержащийся в воздухе водяной пар достигнет насыщения.
f - Относительная влажность воздуха - влажноcть воздуха, измеренная на высоте 2 м над землей.
Te - Эффективная температура - температура, которую ощущает одетый по сезону человек в тени. Характеристика душности погоды. При расчете учитывается влияние влажности воздуха и скорости ветра на теплоощущения человека.
Tes - Эффективная температура на солнце - температура, которую ощущает человек, с поправкой на солнечный нагрев. Характеристика знойности погоды. Зависит от высоты солнца над горизонтом, облачности и скорости ветра. Ночью, в пасмурную погоду, а также при ветре 12 м/с и более поправка равна нулю.
P - Атмосферное давление - приведенное к уровню моря атмосферное давление.
Po - Атмосферное давление - измеренное на уровне метеостанции атмосферное давление.
Tmin - Минимальная температура - минимум температуры воздуха на высоте 2 м над землей.
Tmax - Максимальная температура - максимум температуры воздуха на высоте 2 м над землей.
R - Количество осадков - Количество выпавших осадков за период времени, мм. При наведении курсора мыши на число - период времени, за который выпало указанное количество осадков.
R24 - Количество осадков - Количество выпавших осадков за 24 часа, мм.
S - Снежный покров - Высота снежного покрова, см. При наведении курсора мыши на число - состояние снежного покрова и степень покрытия местности в баллах.